| time (UTC) | temp C | wind direction | speed KPH | gust KPH | rain 1hr cm | rain 24hr cm | rain mn cm | humidity % | barometer mb |
| 20260901083517 | 20 | 224 | 3.2 | 6.4 | 0.00 | 0.13 | 0.00 | 67 | 1022.3 |
| 20260901082517 | 20 | 233 | 3.2 | 9.7 | 0.00 | 0.13 | 0.00 | 68 | 1022.3 |
| 20260901081517 | 19 | 211 | 4.8 | 12.9 | 0.00 | 0.13 | 0.00 | 71 | 1022.3 |
| 20260901080517 | 18 | 211 | 4.8 | 12.9 | 0.00 | 0.13 | 0.00 | 74 | 1022.3 |
| 20260901075517 | 18 | 217 | 3.2 | 9.7 | 0.00 | 0.13 | 0.00 | 77 | 1022.3 |
| 20260901074517 | 18 | 220 | 3.2 | 8.0 | 0.00 | 0.13 | 0.00 | 79 | 1022.2 |
| 20260901073517 | 17 | 221 | 4.8 | 12.9 | 0.00 | 0.13 | 0.00 | 79 | 1022.2 |
| 20260901072537 | 17 | 232 | 3.2 | 9.7 | 0.00 | 0.13 | 0.00 | 81 | 1022.1 |
| 20260901071517 | 17 | 230 | 4.8 | 11.3 | 0.00 | 0.13 | 0.00 | 82 | 1022.1 |
| 20260901070517 | 16 | 227 | 3.2 | 11.3 | 0.00 | 0.13 | 0.00 | 83 | 1022.0 |
| 20260901065517 | 16 | 230 | 3.2 | 8.0 | 0.00 | 0.13 | 0.00 | 85 | 1022.0 |
| 20260901064517 | 15 | 228 | 3.2 | 8.0 | 0.00 | 0.13 | 0.00 | 86 | 1021.9 |
| 20260901063517 | 15 | 223 | 3.2 | 8.0 | 0.00 | 0.13 | 0.00 | 87 | 1021.9 |
| 20260901062517 | 15 | 216 | 3.2 | 11.3 | 0.00 | 0.13 | 0.00 | 87 | 1021.9 |
| 20260901061517 | 15 | 215 | 4.8 | 9.7 | 0.00 | 0.13 | 0.00 | 88 | 1021.9 |
| 20260901060517 | 14 | 217 | 3.2 | 8.0 | 0.00 | 0.13 | 0.00 | 88 | 1021.8 |
| 20260901055517 | 14 | 219 | 3.2 | 8.0 | 0.00 | 0.13 | 0.00 | 89 | 1021.6 |
| 20260901054517 | 13 | 232 | 4.8 | 8.0 | 0.00 | 0.13 | 0.00 | 89 | 1021.6 |
| 20260901053517 | 13 | 222 | 4.8 | 14.5 | 0.00 | 0.13 | 0.00 | 90 | 1021.6 |
| 20260901052517 | 13 | 224 | 4.8 | 9.7 | 0.00 | 0.13 | 0.00 | 90 | 1021.6 |
| 20260901051517 | 13 | 226 | 4.8 | 11.3 | 0.00 | 0.13 | 0.00 | 90 | 1021.6 |
| 20260901050517 | 13 | 218 | 3.2 | 8.0 | 0.00 | 0.13 | 0.00 | 90 | 1021.6 |
| 20260901045557 | 13 | 201 | 1.6 | 11.3 | 0.00 | 0.13 | 0.00 | 90 | 1021.6 |
| 20260901044517 | 13 | 222 | 4.8 | 8.0 | 0.00 | 0.13 | 0.00 | 91 | 1021.5 |
| 20260901043517 | 13 | 223 | 4.8 | 9.7 | 0.00 | 0.13 | 0.00 | 91 | 1021.5 |
| 20260901042517 | 13 | 217 | 4.8 | 11.3 | 0.00 | 0.13 | 0.00 | 91 | 1021.4 |
| 20260901041517 | 13 | 225 | 3.2 | 9.7 | 0.00 | 0.13 | 0.00 | 91 | 1021.4 |
| 20260901040537 | 13 | 225 | 4.8 | 8.0 | 0.00 | 0.13 | 0.00 | 91 | 1021.4 |
| 20260901035537 | 13 | 215 | 3.2 | 6.4 | 0.00 | 0.13 | 0.00 | 91 | 1021.3 |
| 20260901034537 | 13 | 222 | 3.2 | 6.4 | 0.00 | 0.13 | 0.00 | 91 | 1021.4 |
| 20260901033517 | 13 | 224 | 1.6 | 6.4 | 0.00 | 0.13 | 0.00 | 91 | 1021.4 |
| 20260901032517 | 13 | 213 | 3.2 | 6.4 | 0.00 | 0.13 | 0.00 | 91 | 1021.3 |
| 20260901031517 | 13 | 228 | 3.2 | 4.8 | 0.00 | 0.13 | 0.00 | 91 | 1021.3 |
| 20260901030517 | 13 | 229 | 1.6 | 4.8 | 0.00 | 0.13 | 0.00 | 92 | 1021.4 |
| 20260901025517 | 13 | 228 | 1.6 | 3.2 | 0.00 | 0.13 | 0.00 | 92 | 1021.4 |
| 20260901024517 | 13 | 219 | 0.0 | 3.2 | 0.00 | 0.13 | 0.00 | 92 | 1021.3 |
| 20260901023517 | 13 | 201 | 1.6 | 3.2 | 0.00 | 0.13 | 0.00 | 91 | 1021.4 |
| 20260901022517 | 13 | 187 | 0.0 | 8.0 | 0.00 | 0.13 | 0.00 | 91 | 1021.4 |
| 20260901021517 | 13 | 201 | 1.6 | 4.8 | 0.00 | 0.13 | 0.00 | 91 | 1021.4 |
| 20260901020537 | 13 | 233 | 1.6 | 3.2 | 0.00 | 0.13 | 0.00 | 91 | 1021.2 |
| 20260901015517 | 13 | 233 | 1.6 | 4.8 | 0.00 | 0.13 | 0.00 | 91 | 1021.2 |
| 20260901014517 | 13 | 225 | 1.6 | 4.8 | 0.00 | 0.13 | 0.00 | 91 | 1021.2 |
| 20260901013517 | 13 | 227 | 1.6 | 4.8 | 0.00 | 0.13 | 0.00 | 91 | 1021.2 |
| 20260901012516 | 13 | 214 | 1.6 | 3.2 | 0.00 | 0.13 | 0.00 | 90 | 1021.1 |
| 20260901011517 | 13 | 229 | 0.0 | 3.2 | 0.00 | 0.13 | 0.00 | 90 | 1021.1 |
| 20260901010517 | 13 | 231 | 1.6 | 3.2 | 0.00 | 0.13 | 0.00 | 89 | 1021.1 |
| 20260901005517 | 13 | 212 | 1.6 | 3.2 | 0.00 | 0.13 | 0.00 | 89 | 1021.0 |
| 20260901004537 | 14 | 231 | 1.6 | 3.2 | 0.00 | 0.13 | 0.00 | 89 | 1021.0 |
| 20260901003517 | 14 | 231 | 0.0 | 3.2 | 0.00 | 0.13 | 0.00 | 88 | 1021.0 |
| 20260901002517 | 14 | 195 | 0.0 | 3.2 | 0.00 | 0.13 | 0.00 | 88 | 1020.9 |
| 20260901001537 | 15 | 190 | 0.0 | 3.2 | 0.00 | 0.15 | 0.00 | 88 | 1020.9 |
| 20260901000517 | 15 | 230 | 1.6 | 3.2 | 0.00 | 0.15 | 0.00 | 87 | 1020.9 |
| 20260831235517 | 15 | 221 | 1.6 | 4.8 | 0.00 | 0.15 | 0.00 | 87 | 1020.9 |
| 20260831234516 | 15 | 228 | 1.6 | 4.8 | 0.00 | 0.15 | 0.00 | 87 | 1020.8 |
| 20260831233517 | 15 | 229 | 1.6 | 3.2 | 0.00 | 0.15 | 0.00 | 87 | 1020.8 |
| 20260831232517 | 15 | 245 | 1.6 | 4.8 | 0.00 | 0.18 | 0.00 | 87 | 1020.7 |
| 20260831231517 | 15 | 240 | 3.2 | 6.4 | 0.00 | 0.28 | 0.00 | 87 | 1020.6 |
| 20260831230517 | 15 | 237 | 3.2 | 6.4 | 0.00 | 0.30 | 0.00 | 87 | 1020.6 |
| 20260831225517 | 15 | 237 | 1.6 | 6.4 | 0.00 | 0.30 | 0.00 | 86 | 1020.6 |
| 20260831224538 | 15 | 241 | 1.6 | 8.0 | 0.00 | 0.30 | 0.00 | 87 | 1020.6 |
| 20260831223517 | 16 | 231 | 3.2 | 6.4 | 0.00 | 0.30 | 0.00 | 86 | 1020.6 |
| 20260831222517 | 16 | 232 | 1.6 | 6.4 | 0.00 | 0.30 | 0.00 | 86 | 1020.6 |
| 20260831221517 | 16 | 231 | 3.2 | 8.0 | 0.00 | 0.30 | 0.00 | 86 | 1020.5 |
| 20260831220516 | 16 | 226 | 3.2 | 4.8 | 0.00 | 0.30 | 0.00 | 85 | 1020.4 |
| 20260831215517 | 16 | 229 | 1.6 | 4.8 | 0.00 | 0.30 | 0.30 | 84 | 1020.4 |
| 20260831214537 | 16 | 240 | 1.6 | 4.8 | 0.00 | 0.30 | 0.30 | 83 | 1020.3 |
| 20260831213517 | 17 | 224 | 1.6 | 4.8 | 0.00 | 0.30 | 0.30 | 83 | 1020.3 |
| 20260831212517 | 17 | 239 | 1.6 | 8.0 | 0.00 | 0.30 | 0.30 | 82 | 1020.2 |
| 20260831211517 | 17 | 236 | 1.6 | 3.2 | 0.00 | 0.30 | 0.30 | 81 | 1020.2 |
| 20260831210517 | 17 | 14 | 0.0 | 1.6 | 0.00 | 0.30 | 0.30 | 80 | 1020.2 |
| 20260831205517 | 17 | 0.0 | 1.6 | 0.00 | 0.30 | 0.30 | 79 | 1020.1 | |
| 20260831204517 | 17 | 244 | 0.0 | 6.4 | 0.00 | 0.30 | 0.30 | 78 | 1020.0 |
| 20260831203517 | 17 | 212 | 3.2 | 11.3 | 0.00 | 0.30 | 0.30 | 80 | 1020.0 |
| 20260831202517 | 17 | 216 | 1.6 | 8.0 | 0.00 | 0.30 | 0.30 | 83 | 1019.9 |
| 20260831201517 | 17 | 234 | 1.6 | 8.0 | 0.00 | 0.30 | 0.30 | 82 | 1019.9 |
| 20260831200538 | 17 | 220 | 3.2 | 11.3 | 0.00 | 0.30 | 0.30 | 81 | 1019.9 |
| 20260831195517 | 18 | 244 | 3.2 | 6.4 | 0.00 | 0.30 | 0.30 | 80 | 1019.7 |
| 20260831194537 | 18 | 212 | 0.0 | 4.8 | 0.00 | 0.30 | 0.30 | 79 | 1019.4 |
| 20260831193518 | 18 | 227 | 1.6 | 14.5 | 0.00 | 0.30 | 0.30 | 79 | 1019.3 |
| 20260831192536 | 18 | 247 | 1.6 | 6.4 | 0.00 | 0.30 | 0.30 | 80 | 1019.2 |
| 20260831191517 | 18 | 201 | 3.2 | 9.7 | 0.00 | 0.30 | 0.30 | 80 | 1018.7 |
| 20260831190517 | 18 | 211 | 1.6 | 9.7 | 0.00 | 0.30 | 0.30 | 79 | 1018.5 |
| 20260831185517 | 18 | 198 | 3.2 | 9.7 | 0.00 | 0.30 | 0.30 | 79 | 1018.4 |
| 20260831184527 | 18 | 212 | 3.2 | 9.7 | 0.00 | 0.30 | 0.30 | 78 | 1018.4 |
| 20260831183537 | 18 | 203 | 3.2 | 9.7 | 0.00 | 0.30 | 0.30 | 78 | 1018.3 |
| 20260831182517 | 18 | 219 | 3.2 | 14.5 | 0.00 | 0.30 | 0.30 | 77 | 1018.1 |
| 20260831181517 | 18 | 215 | 3.2 | 12.9 | 0.00 | 0.30 | 0.30 | 77 | 1017.9 |
| 20260831180517 | 18 | 205 | 4.8 | 9.7 | 0.00 | 0.30 | 0.30 | 77 | 1017.8 |
| 20260831175517 | 18 | 210 | 6.4 | 14.5 | 0.00 | 0.30 | 0.30 | 77 | 1017.7 |
| 20260831174517 | 19 | 200 | 6.4 | 24.1 | 0.00 | 0.30 | 0.30 | 77 | 1017.7 |
| 20260831172517 | 19 | 195 | 4.8 | 12.9 | 0.00 | 0.30 | 0.30 | 77 | 1017.5 |
| 20260831171517 | 20 | 192 | 4.8 | 14.5 | 0.00 | 0.30 | 0.30 | 78 | 1017.4 |
| 20260831170517 | 20 | 206 | 4.8 | 20.9 | 0.00 | 0.30 | 0.30 | 78 | 1017.3 |
| 20260831165517 | 20 | 206 | 4.8 | 16.1 | 0.00 | 0.30 | 0.30 | 79 | 1017.3 |
| 20260831164516 | 20 | 225 | 6.4 | 19.3 | 0.00 | 0.30 | 0.30 | 78 | 1017.3 |
| 20260831163537 | 20 | 207 | 6.4 | 12.9 | 0.00 | 0.30 | 0.30 | 79 | 1017.1 |
| 20260831162537 | 20 | 205 | 6.4 | 20.9 | 0.00 | 0.30 | 0.30 | 78 | 1017.1 |
| 20260831161517 | 20 | 214 | 4.8 | 17.7 | 0.00 | 0.30 | 0.30 | 79 | 1017.2 |
| 20260831160517 | 20 | 216 | 6.4 | 12.9 | 0.00 | 0.30 | 0.30 | 79 | 1017.2 |
| 20260831155537 | 20 | 205 | 6.4 | 14.5 | 0.00 | 0.30 | 0.30 | 78 | 1017.2 |
| 20260831154517 | 20 | 219 | 8.0 | 22.5 | 0.00 | 0.30 | 0.30 | 76 | 1017.1 |
| 20260831153517 | 21 | 207 | 8.0 | 19.3 | 0.00 | 0.30 | 0.30 | 76 | 1017.1 |
| 20260831152537 | 20 | 214 | 4.8 | 19.3 | 0.03 | 0.30 | 0.30 | 78 | 1017.0 |
| 20260831151517 | 20 | 215 | 6.4 | 12.9 | 0.13 | 0.30 | 0.30 | 79 | 1017.1 |
| 20260831150517 | 20 | 226 | 4.8 | 12.9 | 0.13 | 0.30 | 0.30 | 83 | 1017.2 |
| 20260831145537 | 19 | 224 | 4.8 | 14.5 | 0.13 | 0.30 | 0.30 | 84 | 1017.2 |
| 20260831144517 | 19 | 233 | 4.8 | 19.3 | 0.13 | 0.30 | 0.30 | 84 | 1017.0 |
| 20260831143538 | 19 | 230 | 4.8 | 12.9 | 0.13 | 0.30 | 0.30 | 81 | 1016.9 |
| 20260831142517 | 21 | 226 | 14.5 | 33.8 | 0.10 | 0.28 | 0.28 | 67 | 1017.0 |
| 20260831141517 | 23 | 212 | 9.7 | 20.9 | 0.00 | 0.18 | 0.18 | 52 | 1015.9 |
| 20260831140517 | 24 | 217 | 6.4 | 22.5 | 0.00 | 0.18 | 0.18 | 51 | 1015.5 |
| 20260831135517 | 24 | 215 | 11.3 | 27.4 | 0.00 | 0.18 | 0.18 | 52 | 1015.6 |
| 20260831134517 | 23 | 202 | 9.7 | 27.4 | 0.00 | 0.18 | 0.18 | 54 | 1015.7 |
| 20260831133517 | 23 | 208 | 11.3 | 27.4 | 0.00 | 0.18 | 0.18 | 56 | 1015.9 |
| 20260831132517 | 23 | 219 | 11.3 | 24.1 | 0.00 | 0.18 | 0.18 | 56 | 1016.1 |
| 20260831131517 | 23 | 218 | 11.3 | 24.1 | 0.00 | 0.18 | 0.18 | 54 | 1016.2 |
| 20260831130517 | 23 | 196 | 9.7 | 24.1 | 0.00 | 0.18 | 0.18 | 55 | 1016.2 |
| 20260831125517 | 23 | 218 | 12.9 | 25.7 | 0.00 | 0.18 | 0.18 | 52 | 1016.2 |
| 20260831124516 | 24 | 211 | 11.3 | 27.4 | 0.00 | 0.18 | 0.18 | 51 | 1016.2 |
| 20260831123537 | 23 | 195 | 11.3 | 22.5 | 0.00 | 0.18 | 0.18 | 54 | 1016.2 |
| 20260831122517 | 23 | 228 | 9.7 | 35.4 | 0.00 | 0.18 | 0.18 | 54 | 1016.3 |
| 20260831121517 | 23 | 217 | 11.3 | 33.8 | 0.00 | 0.18 | 0.18 | 53 | 1016.4 |
| 20260831120537 | 23 | 226 | 11.3 | 30.6 | 0.00 | 0.18 | 0.18 | 54 | 1016.4 |
| 20260831115517 | 23 | 226 | 9.7 | 22.5 | 0.00 | 0.18 | 0.18 | 56 | 1016.5 |
| 20260831114517 | 22 | 215 | 9.7 | 20.9 | 0.00 | 0.18 | 0.18 | 58 | 1016.6 |
| 20260831113517 | 22 | 222 | 9.7 | 20.9 | 0.00 | 0.18 | 0.18 | 59 | 1016.5 |
| 20260831112517 | 22 | 230 | 11.3 | 29.0 | 0.00 | 0.18 | 0.18 | 59 | 1016.6 |
| 20260831111537 | 22 | 215 | 6.4 | 20.9 | 0.00 | 0.18 | 0.18 | 61 | 1016.5 |
| 20260831110536 | 21 | 213 | 11.3 | 25.7 | 0.00 | 0.18 | 0.18 | 62 | 1016.6 |
| 20260831105517 | 21 | 225 | 11.3 | 27.4 | 0.00 | 0.18 | 0.18 | 64 | 1016.6 |
| 20260831104517 | 21 | 219 | 9.7 | 22.5 | 0.00 | 0.18 | 0.18 | 65 | 1016.6 |
| 20260831103517 | 21 | 220 | 12.9 | 22.5 | 0.00 | 0.18 | 0.18 | 66 | 1016.6 |
| 20260831102516 | 20 | 213 | 9.7 | 24.1 | 0.00 | 0.18 | 0.18 | 69 | 1016.7 |
| 20260831101517 | 20 | 227 | 12.9 | 29.0 | 0.00 | 0.18 | 0.18 | 69 | 1016.8 |
| 20260831100517 | 20 | 226 | 8.0 | 30.6 | 0.00 | 0.18 | 0.18 | 73 | 1016.8 |
| 20260831095517 | 20 | 222 | 11.3 | 29.0 | 0.00 | 0.18 | 0.18 | 75 | 1016.9 |
| 20260831094537 | 19 | 235 | 12.9 | 35.4 | 0.00 | 0.18 | 0.18 | 76 | 1017.0 |
| 20260831093517 | 20 | 221 | 12.9 | 29.0 | 0.00 | 0.18 | 0.18 | 72 | 1017.0 |
| 20260831092517 | 20 | 216 | 11.3 | 27.4 | 0.00 | 0.18 | 0.18 | 70 | 1016.8 |
| 20260831091537 | 20 | 211 | 8.0 | 19.3 | 0.00 | 0.18 | 0.18 | 68 | 1016.6 |
| 20260831090537 | 21 | 205 | 8.0 | 22.5 | 0.00 | 0.18 | 0.18 | 69 | 1016.5 |
| 20260831085517 | 21 | 189 | 6.4 | 20.9 | 0.00 | 0.18 | 0.18 | 70 | 1016.4 |
| 20260831084517 | 20 | 213 | 6.4 | 17.7 | 0.00 | 0.18 | 0.18 | 71 | 1016.4 |